This is the latest recevied weather packets stored in our database for station/object NO9B. If no packets are shown the sender has not sent any weather packets the latest 10 day(s).
| Time | Temp. | Humidity | Pressure | Rain* | Wind** | Luminosity | Snow |
|---|---|---|---|---|---|---|---|
| 1788296545 | 26.11° C | 86% | 1015.2 hPa | 0.51 mm | - | 41 W/m² | - |
| 1788296241 | 26.11° C | 87% | 1015.3 hPa | 0 mm | - | 78 W/m² | - |
| 1788295940 | 26.11° C | 87% | 1015.2 hPa | 0.51 mm | - | 33 W/m² | - |
| 1788295642 | 26.67° C | 87% | 1015 hPa | 1.27 mm | - | 82 W/m² | - |
| 1788295332 | 26.67° C | 83% | 1015.1 hPa | 4.32 mm | - | 42 W/m² | - |
| 1788295027 | 27.22° C | 86% | 1015 hPa | 5.33 mm | - | 25 W/m² | - |
| 1788294721 | 27.22° C | 92% | 1015.3 hPa | 1.27 mm | - | 22 W/m² | - |
| 1788294421 | 27.22° C | 91% | 1015.2 hPa | 0.51 mm | - | 26 W/m² | - |
| 1788294116 | 27.22° C | 90% | 1015.2 hPa | 0.51 mm | - | 22 W/m² | - |
| 1788293812 | 27.78° C | 89% | 1015.3 hPa | 2.29 mm | - | 14 W/m² | - |
| 1788293511 | 27.78° C | 87% | 1015.4 hPa | 4.83 mm | - | 17 W/m² | - |
| 1788293211 | 28.33° C | 84% | 1015.6 hPa | 1.27 mm | - | 12 W/m² | - |
| 1788292906 | 28.33° C | 84% | 1015.9 hPa | 0 mm | - | 17 W/m² | - |
| 1788292603 | 28.89° C | 82% | 1015.6 hPa | 0.51 mm | - | 36 W/m² | - |
| 1788292299 | 29.44° C | 79% | 1015.1 hPa | 1.78 mm | - | 38 W/m² | - |
| 1788291994 | 30° C | 80% | 1015.1 hPa | 0.51 mm | - | 28 W/m² | - |
| 1788291689 | 30° C | 79% | 1015.1 hPa | 0 mm | - | 29 W/m² | - |
| 1788291384 | 30° C | 78% | 1015.3 hPa | 0 mm | - | 52 W/m² | - |
| 1788291078 | 30° C | 77% | 1015.5 hPa | 0 mm | - | 39 W/m² | - |
| 1788290773 | 30° C | 75% | 1015.6 hPa | 0 mm | - | 34 W/m² | - |
| 1788290486 | 30.56° C | 74% | 1015.7 hPa | 0 mm | - | 43 W/m² | - |
| 1788290164 | 30.56° C | 71% | 1015.7 hPa | 0 mm | - | 59 W/m² | - |
| 1788289861 | 31.11° C | 75% | 1015.6 hPa | 0 mm | - | 131 W/m² | - |
| 1788289556 | 31.11° C | 75% | 1015.5 hPa | 0 mm | - | 278 W/m² | - |
| 1788289255 | 31.11° C | 73% | 1015.4 hPa | 0 mm | - | 548 W/m² | - |
* Rain latest hour (hover to see other rain measurements)
** Current wind speed in m/s (hover to see current wind gust speed)